Tracking 19709 objects as of 19-Jun-2019
HD Live streaming from Space Station
objects crossing your sky now

OSIRIS-3U


OSIRIS-3U is no longer on orbit
OSIRIS-3U is classified as:


NORAD ID: 43027
Int'l Code: 1998-067NL
Perigee: N/A
Apogee: N/A
Inclination: N/A
Period: N/A
Semi major axis: N/A
RCS: N/A
Launch date: November 20, 1998
Source: United States (US)
Launch site: TYURATAM MISSILE AND SPACE COMPLEX (TTMTR)
Decay date: 2019-03-07

Uplink (MHz):
Downlink (MHz): 437.505
Beacon (MHz):
Mode: 9k6-38k4 GMSK
Call sign:
Status: Reentered

aabbcc
Your satellite tracking list
Your tracking list is empty




NASA's NSSDC Master Catalog

Two Line Element Set (TLE):
1 43027U 98067NL  19066.21822070  .27976699  12582-4  67924-3 0  9998
2 43027  51.6122  93.2605 0000010 179.6888 180.8884 16.46418237 73939
Source of the keplerian elements: AFSPC